Terminal Aerodrome Forecast
Issued by NWS

Home | Current Version | Previous Version | Text Only | Print | Product List | Glossary On
Versions: 1 2 3 4 5 6 7 8 9 10 11 12 13 14 15 16 17 18 19 20 21 22 23
000
FTUS42 TJSJ 202353
TAFKPK
TAF
TKPK 202353Z 2100/2124 20006KT P6SM VCSH FEW018 FEW022
     FM211300 26013KT P6SM FEW020 SCT025 SCT030
     FM211800 30010KT P6SM VCSH SCT020 SCT030 SCT060
      AMD NOT SKED 2102/2111=

USA.gov is the U.S. government's official web portal to all federal, state and local government web resources and services.